This demonstration page uses our WeatherBlox Daily Observations layout. Learn more.

Left ArrowRight Arrow

34.02893, -84.19858

Hourly Observations for January 14, 2018

Temp ( °F °C ) Dew Point ( °F °C ) Humidity (%) Winds ( mph kmh ) Pressure ( in mb ) Visibility ( mi km ) Precip ( " mm )
12:53 am 00:53 Clear 22 -5.6 13 -10.6 68 68 NW 10 17 30.48 1032 10 16 0.00 0.00
1:53 am 01:53 Clear 20 -6.7 13 -10.6 74 74 NW 8 13 30.50 1033 10 16 0.00 0.00
2:53 am 02:53 Clear 20 -6.7 12 -11.1 71 71 NW 8 13 30.50 1033 10 16 0.00 0.00
3:53 am 03:53 Clear 19 -7.2 12 -11.1 74 74 NW 7 11 30.50 1033 10 16 0.00 0.00
4:53 am 04:53 Clear 19 -7.2 11 -11.7 71 71 NNW 8 13 30.51 1033 10 16 0.00 0.00
5:53 am 05:53 Clear 18 -7.8 11 -11.7 74 74 NW 5 7 30.53 1034 10 16 0.00 0.00
6:53 am 06:53 Clear 17 -8.3 11 -11.7 77 77 NNW 5 7 30.55 1034 10 16 0.00 0.00
7:53 am 07:53 Sunny 17 -8.3 11 -11.7 77 77 Calm 30.58 1036 10 16 0.00 0.00
8:53 am 08:53 Sunny 20 -6.7 12 -11.1 71 71 NNE 5 7 30.59 1036 10 16 0.00 0.00
9:53 am 09:53 Sunny 24 -4.4 13 -10.6 62 62 WNW 5 7 30.61 1037 10 16 0.00 0.00
10:53 am 10:53 Sunny 29 -1.7 14 -10 54 54 NNW 3 6 30.60 1036 10 16 0.00 0.00
11:53 am 11:53 Sunny 32 0 15 -9.4 50 50 VRB 5 7 30.58 1036 10 16 0.00 0.00
12:53 pm 12:53 Sunny 36 2.2 15 -9.4 42 42 VRB 3 6 30.54 1034 10 16 0.00 0.00
1:53 pm 13:53 Sunny 36 2.2 12 -11.1 37 37 Calm 30.50 1033 10 16 0.00 0.00
2:53 pm 14:53 Sunny 39 3.9 12 -11.1 33 33 Calm 30.49 1033 10 16 0.00 0.00
3:53 pm 15:53 Sunny 39 3.9 12 -11.1 33 33 VRB 3 6 30.50 1033 10 16 0.00 0.00
4:53 pm 16:53 Sunny 38 3.3 13 -10.6 36 36 WNW 7 11 30.49 1033 10 16 0.00 0.00
5:53 pm 17:53 Clear 35 1.7 14 -10 42 42 NW 7 11 30.50 1033 10 16 0.00 0.00
6:53 pm 18:53 Clear 32 0 15 -9.4 50 50 NNW 5 7 30.51 1033 10 16 0.00 0.00
7:53 pm 19:53 Clear 31 -0.6 14 -10 49 49 Calm 30.52 1034 10 16 0.00 0.00
8:53 pm 20:53 Clear 29 -1.7 15 -9.4 56 56 Calm 30.53 1034 10 16 0.00 0.00
9:53 pm 21:53 Clear 28 -2.2 12 -11.1 51 51 Calm 30.53 1034 10 16 0.00 0.00
10:53 pm 22:53 Clear 26 -3.3 15 -9.4 63 63 Calm 30.53 1034 10 16 0.00 0.00
11:53 pm 23:53 Clear 26 -3.3 14 -10 60 60 Calm 30.52 1033 10 16 0.00 0.00

Powered by AerisWeather